Location: Unspecified
(0.0000°N, 0.0000°E)
Time: 09:06:17
(UTC+01:00)

Cosmos 1536 - Visible Passes

Search period start: 24 February 2017 00:00
Search period end: 06 March 2017 00:00
Orbit: 541 x 561 km, 82.5° (Epoch: 23 February)

Date Brightness Start Highest point End Pass type
(mag) Time Alt. Az. Time Alt. Az. Time Alt. Az.
24 Feb 6.3 20:52:22 10° W 20:53:06 10° W 20:53:50 10° WNW visible
04 Mar 3.3 06:44:01 10° N 06:48:01 67° E 06:52:04 10° S visible
05 Mar 3.0 06:40:09 10° N 06:44:10 78° E 06:48:15 10° S visible
